ONEWEB-0064, 45433

Orbit data source: Space-Track

ONEWEB-0064, 45433 is a payload satellite owned by One Web (UK) in LEO that was launched on Sat, 21 Mar 2020 UTC via a SOYUZ-2-1B launch vehicle from the Tyuratam Missile And Space Complex (TTMTR). Payload-class satellites include a variety of spacecraft equipped with specific instruments for various scientific and technological missions. These include communications satellites like Starlink; space stations such as the ISS; scientific satellites like the Hubble; Earth observation satellites from companies like Planet Labs, Umbra, and HawkEye 360; GPS; miniature CubeSats for education and research; and military/defense satellites.

Loading next visibility...
Identifier
45433, 2020-020K
Orbit
LEO
Last TLE update
16 hours ago
Origin
Manufacturer
One Web
Mission
Operational Commercial Communications
Bus & Motor
ARROW, Unknown motor
Mass
148 kg wet, ~140 kg dry
Launch date (UTC)
2020-03-21 (5 years ago)
Launch vehicle
SOYUZ-2-1B
Launch site
Tyuratam Missile And Space Complex (TTMTR)
Object type
Payload
Rocket body
Debris
Shape & HBR
Trap Box + 2 Pan, 5 m
Radar Cross Section
2.957 m², Large (>1 m²)

Expand to show TLE details & history

TLE from 16 hours ago
0 ONEWEB-0064
1 45433U 20020K   25182.44943484 -.00000028  00000-0 -11581-3 0  9992
2 45433  87.8840  90.9896 0002043  74.0681 286.0672 13.11415587256710
Epoch: 2025-07-01T10:47Z
TLE epoch observation values (Epoch: 2025-07-01T10:47:11.17Z)
Latitude
-0°
Longitude
9.44833°
Altitude
1,220.148 km
Speed
7.244 km/s
True Right ascension
06h 03m 57s
True Declination
0° 00' 00"
Sunlit
Object was in daylight at epoch
Visualization orbit readout
Latitude
-81.54897°
Longitude
-5.01036°
Altitude
1,247.463 km
Speed
7.23 km/s
Apparent Right ascension
02h 59m 45s
Apparent Declination
-63° 20' 19"
Sunlit
Object is in daylight
Visualization observer readout
Local Sidereal Time
14:32:09
Azimuth
187.685° SSW
Elevation
-66.221°
Doppler factor
1
Orbital elements
Apogee altitude
1,216.357 km
Perigee altitude
1,213.255 km
Semi-major axis
7,592.943 km
Eccentricity
0.0002
Inclination
87.884°
RAAN
90.9896°
Arg. of periapsis
74.0681°
True anomaly
Unknown
Mean anomaly
286.0672°
Eccentric anomaly
Unknown
Mean motion
3.28041 °/min
Orbital period
109.74 mins
BSTAR
-0.00011581
Loading maneuver chart data...
Loading SW <> Apogee altitude chart data...
Loading historical data...
Loading historical data...
Loading historical data...
Loading historical data...
Loading historical data...
Loading historical data...
Loading historical data...

ONEWEB-0064 Visibility forecast

Observer location: undefined°, undefined°

Span
Click to sort rows by Start time (UTC) header in descending order
Start Az.
Max El. time (UTC)
Max El. Az.
Max El.
End time (UTC)
End Az.
13 mins2025-07-02 05:42:00.352Z7.852° NNE2025-07-02 05:49:00.352Z104.298° ESE40.79°2025-07-02 05:55:00.352Z164.635° S
9 mins2025-07-02 07:34:00.352Z322.617° NNW2025-07-02 07:38:00.352Z281.703° WNW22.007°2025-07-02 07:43:00.352Z236.523° WSW
13 mins2025-07-02 18:01:00.352Z165.506° S2025-07-02 18:07:00.352Z92.592° ESE42.785°2025-07-02 18:14:00.352Z6.388° NNE
8 mins2025-07-02 19:54:00.352Z249.254° W2025-07-02 19:58:00.352Z288.903° WNW19.81°2025-07-02 20:02:00.352Z325.743° NNW
|